Find Starlink 32823

NORAD ID: 62823 Int'l Des: 2025-018 Owner: SPXS Country: US Constellation: starlink decayed
LEOCIRCULAR

Re-entered — May 22, 2026

3D地球を読み込み中...

About Starlink 32823

Starlink 32823 (NORAD 62823) is a starlink constellation satellite (v2 mini) launched Jan 24, 2025 by SPXS of US. It re-entered the atmosphere on May 22, 2026. with a mass of 730.00 kg.

高度履歴

Loading altitude history...

軌道要素

1 62823U 25018T 26142.68844907 .12619469 12158-4 22000-2 0 9993
2 62823 53.1496 317.5028 0017518 277.2635 82.6418 16.31554391 74627
Epoch: May 22, 2026 • Age: 2968 hours

現在のステータス

Position data unavailable
打ち上げ日 Jan 24, 2025
運用期間 1.6 years
落下予定日 May 22, 2026
タイプ internet

技術仕様

分類 Payload
質量 730.00 kg
乾燥質量 700.00 kg
長さ 0.30 m
スパン 29.00 m
形状 ? Box + pan
製造者 SPXS
バスタイプ Starlink V2M
フェーズステータス Unknown Transfer Status
所有者/国 SPXS/US

Most Searched